Regional Weather Roundup
Issued by NWS Green Bay, WI

Home | Current Version | Previous Version | Graphics & Text | Print | Product List | Glossary Off
Versions: 1 2 3 4 5 6 7 8 9 10 11 12 13 14 15 16 17 18 19 20 21 22 23 24 25 26 27 28 29 30 31 32 33 34 35 36 37 38 39 40 41 42 43 44 45 46 47 48 49 50

993
ASUS43 KGRB 011100
RWRGRB

NORTH-CENTRAL AND NORTHEAST WISCONSIN REGIONAL WEATHER ROUNDUP
NATIONAL WEATHER SERVICE GREEN BAY WI
600 AM CDT SUN MAY 01 2016

WIZ005-009-010>012-018-019-011200-
NORTH CENTRAL WISCONSIN

CITY           SKY/WX    TMP DP  RH WIND       PRES   REMARKS
IRONWOOD         N/A     34  32  93 CALM      30.16S VSB<1/4
MANITOWISH WTR NOT AVBL
ARBOR VITAE    NOT AVBL
EAGLE RIVER    NOT AVBL
LAND O LAKES   NOT AVBL
RHINELANDER    CLOUDY    36  32  85 VRB5      30.12S
PHILLIPS       NOT AVBL
ANTIGO         NOT AVBL
TOMAHAWK       NOT AVBL
MERRILL        NOT AVBL
$$

WIZ013-073-011200-
NORTHEAST WISCONSIN

CITY           SKY/WX    TMP DP  RH WIND       PRES   REMARKS
IRON MOUNTAIN  CLOUDY    37  33  85 NW3       30.11R
MARINETTE      CLOUDY    43  32  65 NE5       30.09S
$$

WIZ017-030-035>037-045-011200-
CENTRAL WISCONSIN

CITY           SKY/WX    TMP DP  RH WIND       PRES   REMARKS
MEDFORD        NOT AVBL
WAUSAU         CLOUDY    44  33  65 N6        30.08S
MOSINEE        CLOUDY    43  34  70 N7        30.09S
MARSHFIELD     CLOUDY    43  32  65 NE9       30.07S
WISC RAPIDS    CLOUDY    44  31  60 NE7       30.08S
STEVENS POINT  NOT AVBL
WAUPACA        NOT AVBL
SHAWANO        NOT AVBL
CLINTONVILLE   NOT AVBL
WAUTOMA        CLOUDY    42  35  76 N10       30.05F
$$

WIZ038-039-048-051-011200-
FOX VALLEY

CITY           SKY/WX    TMP DP  RH WIND       PRES   REMARKS
NWS GREEN BAY  LGT RAIN  43  37  79 NE13      30.07S
APPLETON       CLOUDY    43  34  70 N13       30.04F
OSHKOSH        CLOUDY    44  36  73 N13       30.03F
FOND DU LAC    CLOUDY    44  38  79 NE13      30.04R
$$

WIZ022-050-052-011200-
EAST CENTRAL WISCONSIN

CITY           SKY/WX    TMP DP  RH WIND       PRES   REMARKS
EPHRAIM        NOT AVBL
STURGEON BAY   CLOUDY    43  34  70 NE6       30.11R
MANITOWOC      NOT AVBL
SHEBOYGAN      CLOUDY    42  37  82 N8        30.03S
$$

LMZ563-521-522-541>543-011200-
LAKESHORE

STATION/POSITION TIME  TEMP    WIND        PRES    VSBY  WAVE
                       AIR SEA DIR/SP/G                  HT/PER
                 (UTC) (F)     (DEG/KT/KT) (MB)    (MI)  (FT/S)
SHEBOYGAN LKSHOR 1000   42      10/ 15/ 17 1017.5R
KEWAUNEE LKSHORE 1000   42      20/ 13/ 17 1017.3R
ALGOMA MARINA    1015           10/ 14/ 18   N/A
NORTHPORT PIER   1000   41     290/  6/  8 1019.0R
N MID LAKE BUOY  0950   40 39   30/ 12/ 14 1018.1F         1/ 3
CHAMBERS ISLAND  1000   41     360/ 12/ 13 1019.3R
MENOMINEE LKSHOR 1000   44      10/  7/ 10 1017.9R
$$




USA.gov is the U.S. government's official web portal to all federal, state and local government web resources and services.